Location: Unspecified
(0.0000°N, 1.0000°E)
Time: 13:58:31
(UTC+01:00)

Daily predictions for brighter satellites

Satellite Brightness Start Highest point End
(mag) Time Altitude Azimuth Time Altitude Azimuth Time Altitude Azimuth
SL-16 R/B 2.5 19:23:56 10° SSW 19:29:35 75° WNW 19:35:13 10° N
BREEZE-M DEB (TANK) 3.9 19:28:29 10° NW 19:31:06 59° SW 19:36:44 10° SSE
Coronas F rocket 3.0 19:31:15 10° SE 19:32:38 14° E 19:34:01 10° ENE
Cosmos 1484 Rocket 3.3 19:29:33 10° S 19:33:17 63° WSW 19:37:05 10° NNW
Delta 2 Rocket 3.2 19:33:53 10° WSW 19:37:10 56° NW 19:40:29 10° NE
Nadezhda 4 Rocket 4.0 19:37:20 10° S 19:43:26 64° E 19:49:33 10° NNE
Centaur D-1AR AC-41 4.5 19:37:46 10° NW 19:43:47 23° N 19:46:46 12° ENE
Cosmos 1626 2.1 19:40:40 10° S 19:44:24 82° E 19:48:07 10° N
Tiangong 1 1.7 19:43:37 10° WSW 19:46:31 48° NW 19:49:21 10° NNE
Cosmos 2279 Rocket 4.2 19:40:42 10° NNE 19:46:39 49° E 19:52:39 10° SSE
USA 229 DEB 4.0 19:47:50 10° SSW 19:54:40 71° WNW 20:01:27 10° NNE
USA 229 4.0 19:47:56 10° SSW 19:54:46 71° WNW 20:01:33 10° NNE
Cosmos 1666 Rocket 3.7 19:52:05 10° S 19:56:24 78° W 20:00:42 10° N
Cosmos 1092 Rocket 4.0 19:53:14 10° S 19:59:24 60° E 20:05:35 10° NNE
Spot 2 Rocket 4.4 19:55:53 10° SE 20:00:02 25° ENE 20:04:09 10° NNE
Cosmos 1933 Rocket 4.0 20:03:54 10° SSE 20:07:59 39° E 20:10:37 19° NE
Cosmos 1707 Rocket 4.2 20:05:08 13° NNE 20:08:23 31° E 20:12:16 10° SSE
HJ-1C 3.8 20:05:18 10° SSE 20:08:33 39° E 20:11:12 14° NNE
NOSS 3-1 (A) 4.1 20:04:35 10° S 20:09:23 28° ESE 20:11:31 22° ENE
Cosmos 1125 Rocket 3.6 20:06:42 10° N 20:11:41 49° ENE 20:16:41 10° SSE
Ariane H10-3 3.3 20:08:37 10° WSW 20:11:56 55° S 20:26:08 10° E
Cosmos 923 Rocket 3.9 20:07:37 10° S 20:12:54 83° ESE 20:18:04 10° NNE
Cosmos 1943 4.0 20:08:24 10° SSE 20:13:13 29° ESE 20:14:59 25° ENE
Helios 1B rocket 2.9 20:09:55 10° N 20:13:58 62° WNW 20:18:03 10° SSW
Cosmos 1300 4.2 20:11:48 10° NNW 20:15:21 38° W 20:18:56 10° SSW
H-2A R/B 4.1 20:13:27 10° SE 20:15:37 23° ESE 20:15:37 23° ESE
FALCON 9 R/B 3.7 20:06:29 10° WNW 20:18:16 45° SW 20:22:15 10° SSE
SJ-6B 3.2 20:15:52 10° S 20:19:43 64° W 20:23:38 10° NNW
Cosmos 1680 Rocket 3.4 20:16:50 10° S 20:22:02 74° ESE 20:25:38 20° NNE
Cosmos 1844 Rocket 3.0 20:18:06 10° NNW 20:23:40 69° WSW 20:29:14 10° S
ALOS 2.2 20:19:41 10° SSE 20:24:17 61° ENE 20:28:52 10° N
Cosmos 1726 4.5 20:21:18 10° NW 20:24:27 25° W 20:27:37 10° SSW
Aurora 2 Rocket 4.0 20:18:32 10° WSW 20:25:28 87° SSE 20:30:54 29° ENE
ARIANE 5 DEB (SYLDA) 4.3 20:12:11 10° W 20:27:35 55° N 20:29:33 34° NE
FENGYUN 3A 3.6 20:22:27 10° SSE 20:27:44 61° ENE 20:32:59 10° N
Cosmos 1470 Rocket 3.5 20:24:24 10° S 20:28:51 88° W 20:31:56 19° N
Cosmos 2195 Rocket 4.3 20:22:54 10° S 20:29:00 70° E 20:34:07 15° NNE
Cosmos 1655 Rocket 4.2 20:25:01 10° SSE 20:31:10 50° E 20:34:10 29° NE
Genesis I 3.7 20:27:44 10° S 20:31:09 40° SE 20:31:09 40° SE
Cosmos 1603 4.3 20:27:57 10° SSW 20:33:30 57° WNW 20:38:37 12° N
Delta R/B 4.5 20:14:25 10° WSW 20:33:34 88° SSE 20:35:27 41° ENE
Cosmos 292 Rocket 4.4 20:33:49 10° SSW 20:38:30 54° WNW 20:41:50 18° N
Ariane H10 4.5 20:14:14 10° W 20:38:49 68° S 20:41:04 34° ESE
Iridium 4 Rocket 4.4 20:35:32 10° SSW 20:40:44 49° W 20:45:28 10° NNW
SAR-Lupe-4 4.0 20:39:46 10° S 20:42:35 53° S 20:42:35 53° S
Meteor 2-20 4.3 20:38:01 10° S 20:44:03 74° E 20:47:00 32° NNE
Ariane 42L R/B 3.7 20:44:46 10° WSW 20:45:49 23° WSW 20:45:49 23° WSW
Maqsat-B 3.3 20:43:26 10° WSW 20:49:22 44° S 20:49:56 40° SSE
NOSS 3-1 (C) 3.4 20:45:03 10° SSW 20:50:38 67° WNW 20:52:46 38° N
Intelsat 5-3 Rocket 4.0 20:39:49 10° SW 20:51:17 46° SSE 20:52:55 37° SE
Skynet4D Del rocket 4.3 20:49:17 10° WNW 20:56:03 76° SSW 21:00:13 30° SE
Resurs 01 Rocket 2.9 20:58:47 10° S 21:02:58 40° WSW 21:07:07 10° NNW
Ariane H10-3 4.1 21:04:28 10° W 21:04:54 15° W 21:04:54 15° W
Cosmos 2278 Rocket 2.4 21:01:23 10° NNW 21:07:00 70° WSW 21:12:39 10° S
H-II Stage 2 3.0 21:09:04 10° WSW 21:16:02 51° SW 21:16:02 51° SW
Centaur D-1AR AC-48 4.5 21:19:02 10° S 21:20:37 14° SSE 21:20:37 14° SSE
BLOCK DM-SL R/B 4.4 21:27:27 10° W 21:29:22 31° W 21:29:22 31° W
USA 234 4.1 21:56:51 45° WSW 21:56:51 45° WSW 22:01:15 10° SW
ATLAS 2AS CENTAUR R/B 4.3 22:00:10 10° SSW 22:02:42 26° SSW 22:02:42 26° SSW
